RH
88 85 78 73 74 76 75 67 73 85 91 86 92 80 80 83 83 85 82 95 94 92 91 90 91 90 86 85 85 83 82 78 79 80 84 84 78 75
91 87 84 79 74 75 75 75 71 67 70 75 84 90 82 85 85 82 81 91 94 92 92 92 92 91 90 87 83 81 81 82 81 77 80 81 79 76
93 93 90 84 88 88 93 87 86 94 89 86 95 90 89 90 90 86 80 82 86 94 93 93 91 89 88 87 84 82 81 79 78 80 81 81 83 78
91 92 90 86 93 93 95 96 96 92 91 85 92 96 92 90 88 93 87 81 83 91 92 91 89 88 86 84 85 85 85 83 80 86 87 86 86 84
84 90 90 89 92 91 90 92 92 89 92 93 88 95 93 94 94 93 90 87 83 86 91 89 87 86 85 85 85 87 89 89 89 89 89 89 89 90
74 79 82 88 89 91 92 92 92 96 96 96 95 97 97 97 97 98 99 95 93 84 85 85 86 85 85 83 86 89 91 91 86 83 90 93 93 94
70 73 76 80 87 86 88 91 93 96 96 97 96 96 97 100 98 97 97 96 97 92 88 84 84 83 83 85 86 91 91 89 90 87 89 90 95 95
75 72 78 93 92 94 94 91 88 92 94 95 94 94 92 91 94 96 98 99 99 92 93 93 86 87 83 82 84 84 90 90 90 92 91 94 95 94
81 82 83 83 91 87 95 94 94 93 89 86 93 91 91 89 91 98 97 96 92 97 92 97 95 93 88 80 85 89 90 91 92 92 95 95 94 95
97 97 97 98 97 97 92 97 96 95 98 98 96 90 88 89 91 90 92 92 98 100 94 99 99 96 90 88 87 87 89 90 94 95 95 93 96 95
95 95 95 96 97 97 98 99 99 99 99 100 100 100 100 98 95 98 100 100 99 99 98 97 99 98 96 96 89 88 89 90 93 94 92 93 96 96
92 91 94 92 91 93 94 97 98 99 98 96 94 96 98 98 100 98 96 100 98 100 97 99 99 98 100 98 94 90 93 91 93 94 92 91 93 96
88 88 88 89 89 91 91 94 97 95 96 98 98 97 97 98 98 99 98 100 100 99 97 97 100 99 100 100 98 93 94 95 97 96 93 92 92 90
80 84 85 82 84 88 85 84 86 90 97 98 99 99 99 99 99 99 99 98 100 100 98 98 100 100 100 99 98 98 97 98 98 99 100 93 92 89
72 72 75 76 74 74 76 76 74 87 97 98 98 98 99 97 100 100 100 100 100 100 100 100 100 100 100 100 98 96 98 99 97 99 98 99 99 99
70 68 67 68 69 72 75 78 80 85 93 97 95 95 96 100 100 100 100 100 100 100 100 100 100 100 100 98 97 97 98 98 97 97 96 95 94 93
65 69 76 78 80 80 79 80 83 82 87 88 87 89 92 96 97 100 100 100 99 99 98 99 100 99 99 100 99 96 98 98 95 99 96 95 94 90
70 77 81 84 85 80 82 81 82 82 82 82 89 92 94 95 96 98 100 99 99 98 97 98 98 99 98 98 100 98 98 98 99 99 97 93 93 89
78 84 86 83 82 83 83 84 86 82 81 83 83 84 88 96 98 98 100 98 98 98 98 97 98 96 98 98 98 100 98 98 97 97 93 94 94 88
82 85 85 84 83 84 83 86 86 85 85 82 82 86 85 90 95 98 99 98 98 98 98 98 98 98 95 96 97 98 99 96 94 92 91 88 88 76
80 82 82 86 88 88 83 85 86 88 84 89 90 90 90 97 96 96 98 98 98 98 98 95 94 98 99 98 98 97 98 94 89 90 88 90 93 93
78 80 80 87 90 90 90 93 94 91 88 85 88 91 90 94 95 97 98 98 98 98 97 98 99 99 99 99 97 96 97 97 89 84 84 87 93 95
80 80 84 86 92 91 93 94 90 89 83 87 89 92 92 95 94 96 98 98 98 99 98 97 98 98 99 99 96 96 97 97 94 96 98 80 80 84
Wind_Speed
13 14 12 11 11 11 11 10 10 8 8 7 5 9 7 6 7 7 9 13 14 13 13 12 11 10 10 12 12 11 10 12 12 13 14 14 11 10
10 15 14 11 13 10 11 9 10 11 9 5 8 5 9 6 8 9 9 9 16 15 14 11 10 11 11 11 11 10 9 9 10 12 13 12 11 9
10 10 12 12 8 7 6 7 9 4 7 4 2 4 8 7 6 7 8 7 7 14 15 13 13 12 12 12 12 11 12 10 11 12 13 12 10 10
13 13 15 11 13 10 8 11 8 9 10 14 6 4 7 9 8 7 8 6 8 14 17 15 15 15 15 14 13 13 12 11 12 12 14 12 11 11
15 15 15 15 15 13 13 12 11 10 11 10 11 4 4 4 6 6 8 8 7 8 18 17 17 16 16 15 15 13 12 11 12 11 12 13 12 12
15 16 16 16 17 16 14 15 12 10 10 11 9 3 3 3 5 5 5 7 7 6 7 10 14 18 19 18 17 14 13 10 13 14 14 11 11 11
14 15 15 17 18 17 12 13 13 11 10 9 10 8 7 5 11 8 11 7 8 7 7 7 7 8 10 16 12 13 13 13 15 15 16 13 11 11
15 15 14 14 15 20 21 18 15 14 14 12 12 12 14 10 7 9 8 5 6 9 8 11 9 10 9 8 16 17 19 16 15 14 13 13 12 10
13 12 11 9 14 15 17 18 18 18 20 15 14 15 12 13 10 11 12 11 12 2 12 11 7 11 8 9 17 18 18 17 16 14 11 10 10 11
11 11 4 6 11 4 12 12 15 14 13 11 11 13 14 10 13 15 17 18 1 2 9 8 7 9 9 9 20 18 18 17 16 15 13 11 10 12
12 14 11 11 16 16 7 5 4 4 5 12 15 14 13 14 14 9 6 5 9 6 9 4 5 3 6 8 10 22 21 19 16 16 16 14 11 12
10 9 20 15 18 17 10 8 7 7 9 11 11 10 8 11 10 11 9 13 9 5 8 11 7 6 4 4 7 8 9 20 18 17 16 15 14 5
7 6 7 18 18 17 14 9 8 10 10 6 6 6 7 7 7 6 10 9 13 13 8 11 8 6 2 3 5 8 8 9 9 11 18 18 17 11
7 6 7 15 14 13 10 13 13 9 5 6 4 5 5 6 6 6 6 7 5 6 6 15 5 11 8 5 5 6 7 7 8 7 5 11 19 17
5 10 14 14 14 9 14 12 10 4 4 5 6 6 4 6 4 3 2 3 4 3 5 12 7 8 8 6 5 7 11 5 6 8 6 7 6 4
8 7 10 11 13 11 9 9 7 7 5 6 7 9 8 4 4 2 4 2 3 5 2 3 5 9 8 6 7 11 7 8 7 6 6 5 5 5
7 6 7 7 8 8 8 9 8 8 8 9 10 11 10 10 9 4 5 4 8 6 2 0 4 5 5 2 5 8 9 6 8 9 7 6 4 5
7 7 7 5 6 8 8 8 7 9 8 9 8 8 9 9 9 9 6 7 9 8 6 4 3 5 2 4 7 6 5 6 8 9 6 7 5 4
5 6 7 8 9 9 9 9 10 10 12 9 11 11 10 9 11 9 8 8 10 9 7 6 7 6 7 3 2 3 6 6 7 7 6 3 4 6
8 8 8 7 7 8 9 9 10 9 9 11 12 11 11 11 11 9 8 9 10 8 6 6 7 9 9 8 6 3 6 8 8 8 6 2 6 12
7 6 6 6 6 7 9 9 10 10 11 11 10 11 11 10 12 11 10 14 15 8 8 9 9 9 5 7 5 6 3 7 5 7 10 7 4 3
6 6 6 6 6 7 8 8 8 10 10 11 11 11 10 10 11 12 9 9 9 8 8 5 8 6 3 3 7 10 6 3 8 14 13 8 5 6
6 6 7 7 6 7 8 8 10 11 12 12 12 12 11 11 11 10 9 9 9 6 5 6 7 5 3 4 11 9 10 8 4 4 2 11 15 15
Wind_Direction
222 219 218 211 214 212 223 203 191 204 216 206 211 218 216 205 203 184 209 195 205 208 212 220 187 196 201 227 242 252 261 271 272 286 282 276 270 291
215 215 211 221 221 216 216 212 213 215 232 189 203 179 205 207 200 194 212 191 192 203 212 205 196 199 208 222 234 239 251 257 266 274 272 281 256 269
200 208 215 216 214 211 209 210 220 186 222 241 132 161 188 204 218 207 221 202 190 202 211 203 205 206 213 218 225 226 238 242 256 262 265 266 275 253
202 209 213 209 213 210 218 212 211 209 227 232 195 193 188 203 215 205 219 220 217 197 206 210 215 212 213 215 219 223 228 229 244 250 264 269 263 259
204 206 208 208 213 214 219 218 219 218 218 220 224 157 192 169 201 205 217 224 229 216 198 206 220 220 220 220 215 219 225 220 225 243 252 261 266 262
217 209 208 211 213 211 213 215 211 207 212 218 223 198 158 166 198 192 221 220 223 218 212 210 224 227 224 225 223 210 207 223 241 247 256 250 256 263
231 222 221 218 213 216 219 208 205 209 214 214 222 205 182 166 196 202 222 213 225 212 206 211 218 224 226 225 222 212 208 214 238 240 248 251 248 250
241 239 223 214 210 208 209 215 212 217 220 219 224 220 214 205 188 206 216 184 231 195 200 230 203 221 217 208 209 209 204 209 220 229 236 241 236 242
242 240 240 229 215 216 220 224 224 222 227 227 226 220 219 209 192 191 202 210 229 174 196 230 188 219 211 211 202 206 205 198 207 213 220 223 221 236
58 29 300 71 29 272 230 220 235 235 231 231 236 226 224 214 203 202 210 218 278 166 176 206 180 217 198 205 202 211 208 207 204 198 198 204 216 204
68 52 49 40 29 27 33 20 334 293 283 253 253 264 259 219 209 207 195 159 214 214 203 186 184 176 200 206 195 202 204 207 207 202 193 190 187 179
55 51 42 40 30 34 39 30 14 3 348 340 334 322 292 277 266 250 212 213 213 209 194 202 163 151 196 208 186 191 198 204 200 202 196 189 184 164
45 31 28 29 28 30 40 28 6 340 332 325 318 309 302 293 286 273 247 221 233 240 178 186 186 181 161 161 173 176 180 186 186 191 191 190 186 178
43 33 24 29 25 36 36 16 7 4 343 326 316 301 293 295 282 275 286 285 289 270 175 196 186 192 176 155 187 168 166 171 168 166 153 187 189 189
36 34 26 20 18 20 9 360 357 343 321 326 318 304 288 294 293 296 295 319 295 283 224 207 209 190 192 167 160 174 156 178 171 159 161 160 156 153
30 44 42 37 38 23 14 5 353 342 326 315 315 309 309 307 281 237 271 250 270 268 335 340 244 193 188 187 155 162 151 166 162 149 157 170 163 164
45 43 35 25 19 11 5 358 350 344 341 336 330 321 312 305 296 261 252 235 246 255 229 284 82 55 33 122 147 159 152 124 150 147 149 160 174 175
49 40 34 21 16 4 354 344 335 328 321 317 307 302 300 298 297 288 256 250 253 241 217 182 188 109 35 3 357 143 133 130 147 147 147 155 164 189
58 49 33 20 10 2 353 342 334 330 322 315 311 307 301 292 296 282 270 258 257 249 215 189 188 195 148 168 341 326 144 135 143 153 161 160 144 164
35 28 21 10 355 348 339 333 328 326 318 316 309 300 299 297 295 283 268 259 256 246 213 192 198 205 205 164 151 153 144 146 156 162 153 112 82 97
18 13 8 352 339 333 330 325 322 313 317 314 311 307 299 293 289 288 273 262 256 238 212 211 200 164 114 102 109 140 105 103 178 165 150 131 117 120
3 355 350 333 320 324 323 317 314 319 321 318 311 301 292 282 284 286 276 269 259 234 223 188 166 154 158 142 140 139 135 121 77 91 79 74 158 156
350 339 334 331 328 324 320 317 321 317 318 317 316 310 304 291 283 283 282 271 257 228 168 164 167 173 147 141 136 133 139 135 124 123 86 94 84 90